Lid_Strength_Index
-1 -1 -1 -0 -0 1 1 1 1 2 1 2 2 2 2 2 2 2 3 2 6 9 8 7 7 9 9 9 12 9 10 9 10 13 13 13 13 12 13 12 13 14 15 15 15 17 18 7 8 11 8 6 6 6
-1 -1 -0 -1 -1 -0 0 1 1 1 1 1 1 2 2 2 2 2 5 3 4 8 8 6 5 5 5 6 7 8 9 9 8 10 10 10 12 11 13 16 9 14 11 13 12 12 7 6 7 5 5 6 6 6
-1 -1 -0 -0 -1 -0 0 0 1 1 1 1 1 1 1 1 1 2 4 5 6 9 9 8 8 4 3 3 2 8 6 5 6 4 8 9 13 11 15 14 11 9 7 11 10 9 8 6 5 5 5 5 5 4
-0 -0 -1 -1 -0 -0 -0 0 1 1 1 1 1 1 1 1 2 3 5 4 6 8 13 10 6 6 4 4 3 3 4 4 4 5 8 10 11 9 11 10 11 9 8 10 10 8 7 6 6 5 5 4 4 4
-0 -0 -0 -1 -1 -1 -0 0 1 1 1 1 1 1 1 2 2 3 3 4 4 8 12 10 6 5 6 5 5 4 4 5 6 7 8 10 7 9 9 9 11 8 9 11 12 7 7 7 5 4 5 5 5 5
-1 -0 -0 -0 -0 -1 -0 0 1 1 1 1 1 1 1 2 3 5 8 5 4 4 9 13 5 8 8 6 6 6 4 5 5 7 7 7 6 8 11 12 8 7 6 6 7 5 5 5 4 4 5 5 5 5
-1 -0 -0 0 -0 -0 0 0 1 1 2 1 1 1 2 2 4 6 8 5 3 3 9 12 11 7 9 9 6 6 5 6 6 6 7 7 7 7 9 12 8 6 5 5 5 5 7 6 6 4 5 4 4 5
-1 -0 0 1 1 0 0 1 1 2 2 2 2 2 2 2 4 6 5 3 3 6 7 12 12 10 9 8 9 7 8 8 7 8 9 9 7 8 12 9 10 11 10 7 9 10 9 8 6 6 5 6 8 8
-0 0 0 1 1 1 1 1 2 2 2 2 2 4 5 7 8 8 5 4 5 6 11 12 14 14 10 9 10 10 9 12 9 12 11 9 11 14 14 15 15 15 16 16 16 15 14 14 12 12 12 12 12 10
-0 0 0 1 1 1 1 1 2 2 2 3 6 9 12 10 7 7 9 10 9 9 9 13 11 13 10 11 11 12 12 13 15 12 10 13 13 15 15 14 14 15 16 18 19 17 17 17 17 18 18 17 16 14
-0 0 0 1 1 1 2 2 2 2 4 7 10 11 11 9 9 12 13 13 14 15 11 11 12 13 10 13 13 11 13 14 18 14 15 14 15 15 14 14 13 14 15 17 18 18 18 18 19 20 19 18 17 16
0 0 1 1 1 1 2 2 3 6 7 8 11 11 12 13 14 15 16 20 19 15 14 14 12 14 12 11 13 13 15 15 18 15 16 17 15 15 15 15 14 14 15 17 18 20 19 19 20 20 20 19 18 17
-0 0 1 1 2 2 2 2 4 6 8 9 11 15 14 17 18 18 19 17 18 16 16 15 15 14 13 14 13 14 17 17 14 16 16 16 15 15 15 15 16 15 15 16 17 19 20 21 20 19 19 19 19 18
-0 0 1 1 2 2 2 3 5 7 7 11 14 18 17 19 17 15 14 13 13 15 15 15 16 15 13 15 14 16 14 14 17 18 17 16 16 16 16 15 16 17 18 19 19 20 22 22 20 20 21 21 20 22
0 1 1 2 2 2 2 4 6 9 10 13 14 17 19 15 16 17 21 19 16 17 16 16 17 16 16 17 15 15 16 18 16 19 17 16 17 17 17 17 18 19 20 21 20 21 21 21 21 22 22 22 22 23
1 2 4 2 2 3 4 6 8 11 15 15 16 16 20 17 14 18 19 17 16 16 16 16 17 18 19 18 18 17 17 20 20 18 17 17 18 18 19 19 20 23 24 23 21 21 20 22 23 23 24 24 25 26
3 5 2 2 3 4 5 8 10 15 12 15 14 18 14 15 14 14 15 15 15 15 17 16 19 19 16 19 19 20 22 21 19 19 18 18 19 19 18 21 24 25 24 23 23 22 22 22 23 24 26 26 27 27
5 3 2 3 5 7 11 12 13 13 14 15 14 15 18 16 15 16 17 17 16 16 16 17 16 19 19 22 23 21 20 19 18 19 19 19 19 19 20 22 24 25 24 24 23 23 23 23 24 25 26 26 27 27
4 3 4 4 6 8 11 13 13 14 14 15 17 18 18 17 19 20 19 18 18 17 18 17 18 21 23 22 23 23 21 20 21 20 19 18 19 21 22 22 24 24 24 24 24 24 24 24 24 25 25 26 27 27
3 3 4 5 6 10 13 15 14 13 14 16 18 17 17 17 20 19 18 18 17 17 18 20 23 23 24 23 23 23 23 22 23 24 23 22 21 22 23 24 24 23 24 24 24 24 25 26 26 26 26 26 27 28
5 6 6 7 11 13 14 15 15 17 18 15 19 18 18 18 19 19 19 20 19 23 22 23 23 23 23 23 23 23 23 24 25 24 24 25 23 23 24 24 24 24 25 25 26 26 26 27 26 26 27 27 27 27
7 6 9 9 13 14 15 17 15 18 16 18 18 20 18 18 20 21 22 21 24 25 25 25 25 25 25 25 24 23 24 24 24 24 24 24 26 25 25 25 25 26 26 26 26 27 27 26 26 26 27 28 27 28
8 10 13 14 16 17 19 17 16 19 17 18 20 18 20 21 22 22 24 24 25 25 26 26 25 25 25 24 23 24 24 25 24 25 25 25 25 25 25 25 25 26 27 26 25 26 27 26 26 27 27 27 27 28
12 17 18 18 18 21 19 20 20 19 19 19 19 20 21 22 25 21 23 24 25 26 25 26 25 25 23 24 25 25 25 25 24 24 25 25 25 26 25 25 25 25 25 25 25 26 26 27 26 27 28 29 29 30
16 21 20 22 21 21 22 21 22 19 22 24 23 21 22 27 21 23 23 24 26 26 26 25 25 25 26 25 25 25 25 26 26 26 27 27 24 24 25 26 26 27 25 25 26 27 28 28 28 29 29 29 30 31
21 25 22 24 23 21 21 23 24 23 24 23 22 25 26 22 23 23 24 26 27 26 27 27 28 26 25 25 26 26 27 26 26 26 27 29 29 27 25 26 26 26 28 26 27 28 29 29 30 31 32 33 33 32
24 25 24 25 23 22 23 23 24 22 24 22 22 24 23 25 25 24 26 28 27 26 26 27 27 27 26 25 24 24 25 27 30 29 30 31 31 32 31 28 28 28 29 29 29 29 30 31 31 31 33 33 34 33
26 27 26 25 25 26 26 25 26 25 24 28 27 26 25 25 24 26 27 27 28 28 28 26 25 25 25 24 24 26 25 28 30 30 29 29 30 31 33 31 31 28 30 30 29 29 30 30 31 32 32 32 33 34
27 26 25 31 29 27 28 26 26 26 27 27 24 25 26 27 29 29 28 30 30 29 27 25 24 24 23 25 28 30 31 30 29 31 31 29 28 28 32 32 31 30 29 28 27 30 32 32 33 32 33 32 33 34
27 26 27 33 30 29 28 30 28 31 32 32 32 29 29 29 30 33 31 30 29 28 28 27 27 27 28 29 28 29 33 34 34 31 29 29 29 32 33 32 31 31 30 30 29 30 27 30 30 32 32 32 31 31
25 26 28 29 30 29 30 32 34 34 33 31 34 28 28 31 29 31 31 31 32 30 27 27 26 29 30 30 32 31 30 33 38 38 37 35 34 34 34 33 33 33 33 32 32 32 31 31 32 33 32 34 35 33
24 28 29 31 30 30 31 30 31 29 29 28 28 32 31 29 30 29 30 31 28 28 28 29 30 30 32 34 35 35 35 36 35 34 36 33 34 35 34 34 35 34 33 32 32 32 34 34 33 33 33 33 33 33
24 26 31 31 32 31 31 30 31 30 30 31 31 34 33 32 30 29 30 32 31 31 30 30 30 32 34 37 37 36 36 37 37 29 30 30 31 32 35 35 35 34 33 32 33 33 34 36 34 35 34 33 32 32